Time,TemperatureF,DewpointF,PressureIn,WindDirection,WindDirectionDegrees,WindSpeedMPH,WindSpeedGustMPH,Humidity,HourlyPrecipIn,Conditions,Clouds,dailyrainin,SoftwareType,DateUTC
2013-05-08 00:01:00,60.1,51.4,30.27,SE,135,0.0,3.8,73,0.00,,,0.00,WUHU21623XXSP,2013-05-08 04:01:00,
2013-05-08 00:06:00,59.9,51.6,30.27,SSW,202,0.0,3.8,74,0.00,,,0.00,WUHU21623XXSP,2013-05-08 04:06:00,
2013-05-08 00:11:00,59.9,51.6,30.26,SSE,157,0.0,4.0,74,0.00,,,0.00,WUHU21623XXSP,2013-05-08 04:11:00,
2013-05-08 00:16:00,60.4,52.5,30.26,SSE,157,2.5,4.0,75,0.00,,,0.00,WUHU21623XXSP,2013-05-08 04:16:00,
2013-05-08 00:21:00,59.9,51.6,30.27,SSE,157,0.0,2.5,74,0.00,,,0.00,WUHU21623XXSP,2013-05-08 04:21:00,
2013-05-08 00:26:00,59.5,51.6,30.26,SSE,157,0.0,3.4,75,0.00,,,0.00,WUHU21623XXSP,2013-05-08 04:26:00,
2013-05-08 00:31:00,59.5,51.6,30.27,SSE,157,0.0,5.6,75,0.00,,,0.00,WUHU21623XXSP,2013-05-08 04:31:00,
2013-05-08 00:36:00,59.5,51.6,30.27,SE,135,0.0,5.6,75,0.00,,,0.00,WUHU21623XXSP,2013-05-08 04:36:00,
2013-05-08 00:41:00,59.4,51.4,30.27,SSE,157,0.0,4.0,75,0.00,,,0.00,WUHU21623XXSP,2013-05-08 04:41:00,
2013-05-08 00:46:00,59.2,51.3,30.27,SE,135,0.0,4.0,75,0.00,,,0.00,WUHU21623XXSP,2013-05-08 04:46:00,
2013-05-08 00:51:00,58.8,51.3,30.27,SE,135,0.0,5.8,76,0.00,,,0.00,WUHU21623XXSP,2013-05-08 04:51:00,
2013-05-08 00:56:00,58.8,51.3,30.27,SSE,157,0.0,5.8,76,0.00,,,0.00,WUHU21623XXSP,2013-05-08 04:56:00,
2013-05-08 01:01:00,58.8,51.3,30.27,ESE,112,0.0,4.7,76,0.00,,,0.00,WUHU21623XXSP,2013-05-08 05:01:00,
2013-05-08 01:06:00,58.8,51.3,30.27,SSE,157,0.0,4.7,76,0.00,,,0.00,WUHU21623XXSP,2013-05-08 05:06:00,
2013-05-08 01:11:00,58.8,51.6,30.27,SE,135,0.0,3.4,77,0.00,,,0.00,WUHU21623XXSP,2013-05-08 05:11:00,
2013-05-08 01:16:00,58.8,51.3,30.27,SSE,157,0.0,5.4,76,0.00,,,0.00,WUHU21623XXSP,2013-05-08 05:16:00,
2013-05-08 01:21:00,58.8,51.6,30.27,SSE,157,0.0,5.4,77,0.00,,,0.00,WUHU21623XXSP,2013-05-08 05:21:00,
2013-05-08 01:26:00,58.3,51.1,30.26,SSE,157,0.0,0.0,77,0.00,,,0.00,WUHU21623XXSP,2013-05-08 05:26:00,
2013-05-08 01:31:00,57.9,51.1,30.26,SE,135,0.0,1.6,78,0.00,,,0.00,WUHU21623XXSP,2013-05-08 05:31:00,
2013-05-08 01:36:00,57.7,50.9,30.26,SE,135,0.0,1.6,78,0.00,,,0.00,WUHU21623XXSP,2013-05-08 05:36:00,
2013-05-08 01:41:00,57.7,51.3,30.26,SSE,157,0.0,0.0,79,0.00,,,0.00,WUHU21623XXSP,2013-05-08 05:41:00,
2013-05-08 01:46:00,57.7,51.3,30.26,SE,135,0.0,0.0,79,0.00,,,0.00,WUHU21623XXSP,2013-05-08 05:46:00,
2013-05-08 01:51:00,57.6,51.1,30.26,SE,135,0.0,0.0,79,0.00,,,0.00,WUHU21623XXSP,2013-05-08 05:51:00,
2013-05-08 01:56:00,57.4,50.5,30.26,SE,135,0.0,0.0,78,0.00,,,0.00,WUHU21623XXSP,2013-05-08 05:56:00,
2013-05-08 02:01:00,57.0,50.5,30.26,SE,135,0.0,0.0,79,0.00,,,0.00,WUHU21623XXSP,2013-05-08 06:01:00,
2013-05-08 02:06:00,56.8,50.7,30.26,SE,135,0.0,0.0,80,0.00,,,0.00,WUHU21623XXSP,2013-05-08 06:06:00,
2013-05-08 02:11:00,56.8,50.7,30.26,SE,135,0.0,0.0,80,0.00,,,0.00,WUHU21623XXSP,2013-05-08 06:11:00,
2013-05-08 02:16:00,56.8,50.7,30.26,SE,135,0.0,2.2,80,0.00,,,0.00,WUHU21623XXSP,2013-05-08 06:16:00,
2013-05-08 02:21:00,57.0,50.9,30.26,SE,135,0.0,2.2,80,0.00,,,0.00,WUHU21623XXSP,2013-05-08 06:21:00,
2013-05-08 02:26:00,56.8,50.7,30.26,SE,135,0.0,0.0,80,0.00,,,0.00,WUHU21623XXSP,2013-05-08 06:26:00,
2013-05-08 02:31:00,56.7,50.5,30.26,SE,135,0.0,0.0,80,0.00,,,0.00,WUHU21623XXSP,2013-05-08 06:31:00,
2013-05-08 02:36:00,56.5,50.7,30.26,SE,135,0.0,0.0,81,0.00,,,0.00,WUHU21623XXSP,2013-05-08 06:36:00,
2013-05-08 02:41:00,56.3,50.5,30.26,SE,135,0.0,0.0,81,0.00,,,0.00,WUHU21623XXSP,2013-05-08 06:41:00,
2013-05-08 02:46:00,56.3,50.8,30.26,SE,135,0.0,0.0,82,0.00,,,0.00,WUHU21623XXSP,2013-05-08 06:46:00,
2013-05-08 02:51:00,56.1,50.6,30.26,SE,135,0.0,0.0,82,0.00,,,0.00,WUHU21623XXSP,2013-05-08 06:51:00,
2013-05-08 02:56:00,56.1,50.6,30.26,SE,135,0.0,0.0,82,0.00,,,0.00,WUHU21623XXSP,2013-05-08 06:56:00,
2013-05-08 03:01:00,56.1,50.6,30.26,South,180,0.0,2.9,82,0.00,,,0.00,WUHU21623XXSP,2013-05-08 07:01:00,
2013-05-08 03:06:00,56.1,51.0,30.26,South,180,0.0,2.9,83,0.00,,,0.00,WUHU21623XXSP,2013-05-08 07:06:00,
2013-05-08 03:11:00,55.9,50.8,30.26,South,180,0.0,0.0,83,0.00,,,0.00,WUHU21623XXSP,2013-05-08 07:11:00,
2013-05-08 03:16:00,55.8,50.6,30.26,South,180,0.0,0.0,83,0.00,,,0.00,WUHU21623XXSP,2013-05-08 07:16:00,
2013-05-08 03:21:00,55.6,50.4,30.26,South,180,0.0,0.0,83,0.00,,,0.00,WUHU21623XXSP,2013-05-08 07:21:00,
2013-05-08 03:26:00,55.4,50.6,30.26,South,180,0.0,0.0,84,0.00,,,0.00,WUHU21623XXSP,2013-05-08 07:26:00,
2013-05-08 03:31:00,55.4,50.6,30.26,South,180,0.0,0.0,84,0.00,,,0.00,WUHU21623XXSP,2013-05-08 07:31:00,
2013-05-08 03:36:00,55.4,50.9,30.26,South,180,0.0,0.0,85,0.00,,,0.00,WUHU21623XXSP,2013-05-08 07:36:00,
2013-05-08 03:41:00,55.6,51.1,30.26,South,180,0.0,0.0,85,0.00,,,0.00,WUHU21623XXSP,2013-05-08 07:41:00,
2013-05-08 03:46:00,55.4,50.9,30.26,South,180,0.0,0.0,85,0.00,,,0.00,WUHU21623XXSP,2013-05-08 07:46:00,
2013-05-08 03:51:00,55.2,50.7,30.26,South,180,0.0,0.0,85,0.00,,,0.00,WUHU21623XXSP,2013-05-08 07:51:00,
2013-05-08 03:56:00,55.2,50.7,30.27,South,180,0.0,0.0,85,0.00,,,0.00,WUHU21623XXSP,2013-05-08 07:56:00,
2013-05-08 04:01:00,54.9,50.4,30.27,South,180,0.0,0.0,85,0.00,,,0.00,WUHU21623XXSP,2013-05-08 08:01:00,
2013-05-08 04:06:00,54.3,49.9,30.27,South,180,0.0,0.0,85,0.00,,,0.00,WUHU21623XXSP,2013-05-08 08:06:00,
2013-05-08 04:11:00,54.0,49.5,30.27,South,180,0.0,0.0,85,0.00,,,0.00,WUHU21623XXSP,2013-05-08 08:11:00,
2013-05-08 04:16:00,53.4,49.0,30.27,South,180,0.0,0.0,85,0.00,,,0.00,WUHU21623XXSP,2013-05-08 08:16:00,
2013-05-08 04:21:00,52.9,48.5,30.27,South,180,0.0,0.0,85,0.00,,,0.00,WUHU21623XXSP,2013-05-08 08:21:00,
2013-05-08 04:26:00,52.5,48.4,30.27,South,180,0.0,0.0,86,0.00,,,0.00,WUHU21623XXSP,2013-05-08 08:26:00,
2013-05-08 04:31:00,52.3,48.2,30.27,South,180,0.0,0.0,86,0.00,,,0.00,WUHU21623XXSP,2013-05-08 08:31:00,
2013-05-08 04:36:00,52.5,48.7,30.27,South,180,0.0,0.0,87,0.00,,,0.00,WUHU21623XXSP,2013-05-08 08:36:00,
2013-05-08 04:41:00,52.5,48.7,30.27,South,180,0.0,0.0,87,0.00,,,0.00,WUHU21623XXSP,2013-05-08 08:41:00,
2013-05-08 04:46:00,52.5,48.7,30.27,South,180,0.0,0.0,87,0.00,,,0.00,WUHU21623XXSP,2013-05-08 08:46:00,
2013-05-08 04:51:00,52.7,49.2,30.27,South,180,0.0,0.0,88,0.00,,,0.00,WUHU21623XXSP,2013-05-08 08:51:00,
2013-05-08 04:56:00,52.5,49.0,30.28,South,180,0.0,0.0,88,0.00,,,0.00,WUHU21623XXSP,2013-05-08 08:56:00,
2013-05-08 05:01:00,52.7,49.2,30.28,South,180,0.0,0.0,88,0.00,,,0.00,WUHU21623XXSP,2013-05-08 09:01:00,
2013-05-08 05:06:00,52.7,49.2,30.28,South,180,0.0,0.0,88,0.00,,,0.00,WUHU21623XXSP,2013-05-08 09:06:00,
2013-05-08 05:11:00,52.5,49.0,30.28,South,180,0.0,0.0,88,0.00,,,0.00,WUHU21623XXSP,2013-05-08 09:11:00,
2013-05-08 05:16:00,52.3,48.8,30.28,South,180,0.0,0.0,88,0.00,,,0.00,WUHU21623XXSP,2013-05-08 09:16:00,
2013-05-08 05:21:00,52.3,48.8,30.28,South,180,0.0,0.0,88,0.00,,,0.00,WUHU21623XXSP,2013-05-08 09:21:00,
2013-05-08 05:26:00,52.2,48.7,30.28,South,180,0.0,0.0,88,0.00,,,0.00,WUHU21623XXSP,2013-05-08 09:26:00,
2013-05-08 05:31:00,52.2,49.0,30.29,South,180,0.0,0.0,89,0.00,,,0.00,WUHU21623XXSP,2013-05-08 09:31:00,
2013-05-08 05:36:00,52.0,48.8,30.28,South,180,0.0,0.0,89,0.00,,,0.00,WUHU21623XXSP,2013-05-08 09:36:00,
2013-05-08 05:41:00,52.2,49.0,30.28,South,180,0.0,0.0,89,0.00,,,0.00,WUHU21623XXSP,2013-05-08 09:41:00,
2013-05-08 05:46:00,52.2,49.0,30.29,South,180,0.0,0.0,89,0.00,,,0.00,WUHU21623XXSP,2013-05-08 09:46:00,
2013-05-08 05:51:00,52.3,49.2,30.28,South,180,0.0,0.0,89,0.00,,,0.00,WUHU21623XXSP,2013-05-08 09:51:00,
2013-05-08 05:56:00,52.0,48.8,30.28,South,180,0.0,0.0,89,0.00,,,0.00,WUHU21623XXSP,2013-05-08 09:56:00,
2013-05-08 06:01:00,52.0,48.8,30.29,South,180,0.0,0.0,89,0.00,,,0.00,WUHU21623XXSP,2013-05-08 10:01:00,
2013-05-08 06:06:00,52.0,48.8,30.29,South,180,0.0,0.0,89,0.00,,,0.00,WUHU21623XXSP,2013-05-08 10:06:00,
2013-05-08 06:11:00,52.0,48.8,30.29,South,180,0.0,0.0,89,0.00,,,0.00,WUHU21623XXSP,2013-05-08 10:11:00,
2013-05-08 06:16:00,52.0,48.8,30.28,South,180,0.0,0.0,89,0.00,,,0.00,WUHU21623XXSP,2013-05-08 10:16:00,
2013-05-08 06:21:00,52.0,48.8,30.28,South,180,0.0,0.0,89,0.00,,,0.00,WUHU21623XXSP,2013-05-08 10:21:00,
2013-05-08 06:26:00,52.0,48.8,30.29,South,180,0.0,0.0,89,0.00,,,0.00,WUHU21623XXSP,2013-05-08 10:26:00,
2013-05-08 06:31:00,52.2,48.8,30.29,South,180,0.0,0.0,89,0.00,,,0.00,WUHU21623XXSP,2013-05-08 10:31:00,
2013-05-08 06:36:00,52.2,49.0,30.29,South,180,0.0,0.0,89,0.00,,,0.00,WUHU21623XXSP,2013-05-08 10:36:00,
2013-05-08 06:41:00,52.2,49.0,30.30,South,180,0.0,0.0,89,0.00,,,0.00,WUHU21623XXSP,2013-05-08 10:41:00,
2013-05-08 06:46:00,52.3,49.2,30.30,South,180,0.0,0.0,89,0.00,,,0.00,WUHU21623XXSP,2013-05-08 10:46:00,
2013-05-08 06:51:00,52.5,49.3,30.30,South,180,0.0,0.0,89,0.00,,,0.00,WUHU21623XXSP,2013-05-08 10:51:00,
2013-05-08 06:56:00,52.5,49.3,30.30,South,180,0.0,0.0,89,0.00,,,0.00,WUHU21623XXSP,2013-05-08 10:56:00,
2013-05-08 07:01:00,52.7,49.5,30.30,South,180,0.0,0.0,89,0.00,,,0.00,WUHU21623XXSP,2013-05-08 11:01:00,
2013-05-08 07:06:00,52.9,49.7,30.30,South,180,0.0,0.0,89,0.00,,,0.00,WUHU21623XXSP,2013-05-08 11:06:00,
2013-05-08 07:11:00,53.2,50.1,30.30,South,180,0.0,0.0,89,0.00,,,0.00,WUHU21623XXSP,2013-05-08 11:11:00,
2013-05-08 07:16:00,53.4,50.2,30.31,South,180,0.0,0.0,89,0.00,,,0.00,WUHU21623XXSP,2013-05-08 11:16:00,
2013-05-08 07:21:00,54.0,50.8,30.31,South,180,0.0,0.0,89,0.00,,,0.00,WUHU21623XXSP,2013-05-08 11:21:00,
2013-05-08 07:26:00,54.3,51.1,30.31,South,180,0.0,0.0,89,0.00,,,0.00,WUHU21623XXSP,2013-05-08 11:26:00,
2013-05-08 07:31:00,54.7,51.2,30.31,South,180,0.0,0.0,88,0.00,,,0.00,WUHU21623XXSP,2013-05-08 11:31:00,
2013-05-08 07:36:00,55.0,51.5,30.31,South,180,0.0,0.0,88,0.00,,,0.00,WUHU21623XXSP,2013-05-08 11:36:00,
2013-05-08 07:41:00,55.2,51.7,30.31,South,180,0.0,0.0,88,0.00,,,0.00,WUHU21623XXSP,2013-05-08 11:41:00,
2013-05-08 07:46:00,55.6,51.7,30.31,South,180,0.0,0.0,87,0.00,,,0.00,WUHU21623XXSP,2013-05-08 11:46:00,
2013-05-08 07:51:00,55.9,51.9,30.31,South,180,0.0,0.0,87,0.00,,,0.00,WUHU21623XXSP,2013-05-08 11:51:00,
2013-05-08 07:56:00,56.5,52.3,30.31,South,180,0.0,0.0,86,0.00,,,0.00,WUHU21623XXSP,2013-05-08 11:56:00,
2013-05-08 08:01:00,57.4,52.9,30.31,South,180,0.0,0.0,85,0.00,,,0.00,WUHU21623XXSP,2013-05-08 12:01:00,
2013-05-08 08:06:00,57.6,53.1,30.31,South,180,0.0,0.0,85,0.00,,,0.00,WUHU21623XXSP,2013-05-08 12:06:00,
2013-05-08 08:11:00,57.9,53.1,30.31,South,180,0.0,0.0,84,0.00,,,0.00,WUHU21623XXSP,2013-05-08 12:11:00,
2013-05-08 08:16:00,58.3,53.1,30.32,South,180,0.0,0.0,83,0.00,,,0.00,WUHU21623XXSP,2013-05-08 12:16:00,
2013-05-08 08:21:00,58.8,53.7,30.32,South,180,0.0,0.0,83,0.00,,,0.00,WUHU21623XXSP,2013-05-08 12:21:00,
2013-05-08 08:26:00,59.4,53.9,30.32,South,180,0.0,0.0,82,0.00,,,0.00,WUHU21623XXSP,2013-05-08 12:26:00,
2013-05-08 08:31:00,59.7,53.6,30.32,South,180,0.0,0.0,80,0.00,,,0.00,WUHU21623XXSP,2013-05-08 12:31:00,
2013-05-08 08:36:00,60.3,53.8,30.32,South,180,0.0,0.0,79,0.00,,,0.00,WUHU21623XXSP,2013-05-08 12:36:00,
2013-05-08 08:41:00,60.6,53.8,30.32,NE,45,0.0,2.0,78,0.00,,,0.00,WUHU21623XXSP,2013-05-08 12:41:00,
2013-05-08 08:46:00,60.8,54.0,30.32,NE,45,0.0,2.0,78,0.00,,,0.00,WUHU21623XXSP,2013-05-08 12:46:00,
2013-05-08 08:51:00,61.3,54.1,30.32,NE,45,0.0,0.0,77,0.00,,,0.00,WUHU21623XXSP,2013-05-08 12:51:00,
2013-05-08 08:56:00,61.7,54.4,30.32,NE,45,0.0,0.0,77,0.00,,,0.00,WUHU21623XXSP,2013-05-08 12:56:00,
2013-05-08 09:01:00,62.2,54.2,30.32,ENE,67,0.0,0.0,75,0.00,,,0.00,WUHU21623XXSP,2013-05-08 13:01:00,
2013-05-08 09:06:00,62.4,54.3,30.32,ENE,67,0.0,0.0,75,0.00,,,0.00,WUHU21623XXSP,2013-05-08 13:06:00,
2013-05-08 09:11:00,63.1,55.0,30.31,ENE,67,0.0,0.0,75,0.00,,,0.00,WUHU21623XXSP,2013-05-08 13:11:00,
2013-05-08 09:16:00,63.5,55.0,30.31,ESE,112,0.0,2.2,74,0.00,,,0.00,WUHU21623XXSP,2013-05-08 13:16:00,
2013-05-08 09:21:00,64.2,55.4,30.31,ESE,112,0.0,2.2,73,0.00,,,0.00,WUHU21623XXSP,2013-05-08 13:21:00,
2013-05-08 09:26:00,64.9,55.7,30.31,ESE,112,0.0,0.0,72,0.00,,,0.00,WUHU21623XXSP,2013-05-08 13:26:00,
2013-05-08 09:31:00,65.5,55.5,30.31,NE,45,0.0,6.9,70,0.00,,,0.00,WUHU21623XXSP,2013-05-08 13:31:00,
2013-05-08 09:36:00,65.8,55.8,30.31,SE,135,0.0,6.9,70,0.00,,,0.00,WUHU21623XXSP,2013-05-08 13:36:00,
2013-05-08 09:41:00,65.3,55.3,30.31,ESE,112,0.0,3.4,70,0.00,,,0.00,WUHU21623XXSP,2013-05-08 13:41:00,
2013-05-08 09:46:00,65.3,55.7,30.31,ESE,112,0.0,3.4,71,0.00,,,0.00,WUHU21623XXSP,2013-05-08 13:46:00,
2013-05-08 09:51:00,66.0,54.7,30.31,ESE,112,0.0,6.9,67,0.00,,,0.00,WUHU21623XXSP,2013-05-08 13:51:00,
2013-05-08 09:56:00,66.7,55.6,30.31,SW,225,0.0,7.2,68,0.00,,,0.00,WUHU21623XXSP,2013-05-08 13:56:00,
2013-05-08 10:01:00,67.5,55.2,30.31,ENE,67,5.4,7.2,65,0.00,,,0.00,WUHU21623XXSP,2013-05-08 14:01:00,
2013-05-08 10:06:00,66.7,54.6,30.30,NNW,337,0.0,6.7,65,0.00,,,0.00,WUHU21623XXSP,2013-05-08 14:06:00,
2013-05-08 10:11:00,67.3,54.6,30.30,ESE,112,0.0,6.7,64,0.00,,,0.00,WUHU21623XXSP,2013-05-08 14:11:00,
2013-05-08 10:16:00,67.3,54.6,30.30,SSE,157,0.4,6.5,64,0.00,,,0.00,WUHU21623XXSP,2013-05-08 14:16:00,
2013-05-08 10:21:00,67.5,55.7,30.30,ESE,112,0.0,5.1,66,0.00,,,0.00,WUHU21623XXSP,2013-05-08 14:21:00,
2013-05-08 10:26:00,68.7,55.6,30.30,ESE,112,0.0,5.4,63,0.00,,,0.00,WUHU21623XXSP,2013-05-08 14:26:00,
2013-05-08 10:31:00,69.4,55.5,30.31,NE,45,0.0,5.4,61,0.00,,,0.00,WUHU21623XXSP,2013-05-08 14:31:00,
2013-05-08 10:36:00,68.9,54.9,30.31,NE,45,0.0,4.9,61,0.00,,,0.00,WUHU21623XXSP,2013-05-08 14:36:00,
2013-05-08 10:41:00,67.8,54.7,30.31,ENE,67,0.0,4.7,63,0.00,,,0.00,WUHU21623XXSP,2013-05-08 14:41:00,
2013-05-08 10:46:00,67.3,54.6,30.30,ESE,112,0.0,5.4,64,0.00,,,0.00,WUHU21623XXSP,2013-05-08 14:46:00,
2013-05-08 10:51:00,67.3,55.1,30.30,ENE,67,0.0,5.4,65,0.00,,,0.00,WUHU21623XXSP,2013-05-08 14:51:00,
2013-05-08 10:56:00,67.8,55.6,30.30,ENE,67,0.0,3.4,65,0.00,,,0.00,WUHU21623XXSP,2013-05-08 14:56:00,
2013-05-08 11:01:00,67.5,54.8,30.30,East,90,0.0,5.8,64,0.00,,,0.00,WUHU21623XXSP,2013-05-08 15:01:00,
2013-05-08 11:06:00,67.3,55.1,30.30,WSW,247,0.0,5.8,65,0.00,,,0.00,WUHU21623XXSP,2013-05-08 15:06:00,
2013-05-08 11:11:00,67.3,55.1,30.30,ENE,67,0.0,4.9,65,0.00,,,0.00,WUHU21623XXSP,2013-05-08 15:11:00,
2013-05-08 11:16:00,66.9,55.1,30.30,SE,135,0.0,4.9,66,0.00,,,0.00,WUHU21623XXSP,2013-05-08 15:16:00,
2013-05-08 11:21:00,66.6,55.6,30.31,East,90,0.0,6.7,68,0.00,,,0.00,WUHU21623XXSP,2013-05-08 15:21:00,
2013-05-08 11:26:00,64.9,56.1,30.31,SE,135,0.0,6.7,73,0.00,,,0.00,WUHU21623XXSP,2013-05-08 15:26:00,
2013-05-08 11:31:00,63.5,56.5,30.31,ENE,67,0.0,6.0,78,0.00,,,0.00,WUHU21623XXSP,2013-05-08 15:31:00,
2013-05-08 11:36:00,63.0,56.7,30.31,ENE,67,0.0,5.4,80,0.00,,,0.00,WUHU21623XXSP,2013-05-08 15:36:00,
2013-05-08 11:41:00,63.1,57.5,30.31,East,90,0.0,2.7,82,0.00,,,0.00,WUHU21623XXSP,2013-05-08 15:41:00,
2013-05-08 11:46:00,63.5,57.9,30.31,NNE,22,0.0,7.2,82,0.00,,,0.00,WUHU21623XXSP,2013-05-08 15:46:00,
2013-05-08 11:51:00,64.0,58.1,30.31,ESE,112,0.0,7.2,81,0.00,,,0.00,WUHU21623XXSP,2013-05-08 15:51:00,
2013-05-08 11:56:00,65.1,58.8,30.30,ENE,67,0.0,1.8,80,0.00,,,0.00,WUHU21623XXSP,2013-05-08 15:56:00,
2013-05-08 12:01:00,65.8,58.8,30.30,NE,45,0.0,2.9,78,0.00,,,0.00,WUHU21623XXSP,2013-05-08 16:01:00,
2013-05-08 12:06:00,66.7,59.3,30.29,NE,45,0.0,2.9,77,0.00,,,0.00,WUHU21623XXSP,2013-05-08 16:06:00,
2013-05-08 12:11:00,66.4,58.2,30.29,NNE,22,0.0,1.8,75,0.00,,,0.00,WUHU21623XXSP,2013-05-08 16:11:00,
2013-05-08 12:16:00,67.6,59.5,30.29,NNE,22,0.0,1.8,75,0.00,,,0.00,WUHU21623XXSP,2013-05-08 16:16:00,
2013-05-08 12:21:00,68.7,59.3,30.28,NE,45,0.0,4.7,72,0.00,,,0.00,WUHU21623XXSP,2013-05-08 16:21:00,
2013-05-08 12:26:00,70.2,59.1,30.28,ESE,112,0.0,4.7,68,0.00,,,0.00,WUHU21623XXSP,2013-05-08 16:26:00,
2013-05-08 12:31:00,70.2,58.6,30.27,NE,45,0.0,4.7,67,0.00,,,0.00,WUHU21623XXSP,2013-05-08 16:31:00,
2013-05-08 12:36:00,70.5,59.0,30.27,NE,45,0.0,8.3,67,0.00,,,0.00,WUHU21623XXSP,2013-05-08 16:36:00,
2013-05-08 12:41:00,70.7,58.7,30.27,SE,135,0.0,8.3,66,0.00,,,0.00,WUHU21623XXSP,2013-05-08 16:41:00,
2013-05-08 12:46:00,71.2,58.0,30.27,SE,135,2.2,4.5,63,0.00,,,0.00,WUHU21623XXSP,2013-05-08 16:46:00,
2013-05-08 12:51:00,69.6,56.9,30.27,WSW,247,0.0,4.0,64,0.00,,,0.00,WUHU21623XXSP,2013-05-08 16:51:00,
2013-05-08 12:56:00,70.0,58.0,30.27,WSW,247,0.0,6.7,66,0.00,,,0.00,WUHU21623XXSP,2013-05-08 16:56:00,
2013-05-08 13:01:00,70.9,58.5,30.27,NNE,22,1.1,7.4,64,0.00,,,0.00,WUHU21623XXSP,2013-05-08 17:01:00,
2013-05-08 13:06:00,71.2,58.4,30.27,North,0,0.0,7.4,64,0.00,,,0.00,WUHU21623XXSP,2013-05-08 17:06:00,
2013-05-08 13:11:00,70.3,57.6,30.27,ESE,112,1.6,7.2,64,0.00,,,0.00,WUHU21623XXSP,2013-05-08 17:11:00,
2013-05-08 13:16:00,69.4,57.5,30.26,ESE,112,0.0,7.2,66,0.00,,,0.00,WUHU21623XXSP,2013-05-08 17:16:00,
2013-05-08 13:21:00,68.7,57.3,30.27,SSE,157,0.0,3.8,67,0.00,,,0.00,WUHU21623XXSP,2013-05-08 17:21:00,
2013-05-08 13:26:00,67.8,57.3,30.27,NE,45,0.0,3.8,69,0.00,,,0.00,WUHU21623XXSP,2013-05-08 17:26:00,
2013-05-08 13:31:00,67.1,57.4,30.27,West,270,0.0,3.6,71,0.00,,,0.00,WUHU21623XXSP,2013-05-08 17:31:00,
2013-05-08 13:36:00,65.7,57.9,30.27,ESE,112,0.0,1.6,76,0.00,,,0.00,WUHU21623XXSP,2013-05-08 17:36:00,
2013-05-08 13:41:00,64.8,58.5,30.27,SSE,157,0.0,8.3,80,0.00,,,0.00,WUHU21623XXSP,2013-05-08 17:41:00,
2013-05-08 13:46:00,64.0,58.8,30.27,SE,135,0.0,8.3,83,0.00,,,0.00,WUHU21623XXSP,2013-05-08 17:46:00,
2013-05-08 13:51:00,63.5,58.6,30.28,ESE,112,0.0,4.3,84,0.00,,,0.00,WUHU21623XXSP,2013-05-08 17:51:00,
2013-05-08 13:56:00,63.1,58.5,30.27,SE,135,0.0,0.0,85,0.00,,,0.00,WUHU21623XXSP,2013-05-08 17:56:00,
2013-05-08 14:01:00,62.6,58.0,30.27,SE,135,0.0,0.0,85,0.00,,,0.00,WUHU21623XXSP,2013-05-08 18:01:00,
2013-05-08 14:06:00,62.8,58.5,30.27,SE,135,0.0,0.0,86,0.02,,,0.02,WUHU21623XXSP,2013-05-08 18:06:00,
2013-05-08 14:11:00,63.0,58.7,30.27,ESE,112,0.0,4.0,86,0.02,,,0.02,WUHU21623XXSP,2013-05-08 18:11:00,
2013-05-08 14:16:00,63.1,59.2,30.27,ESE,112,0.0,4.0,87,0.02,,,0.02,WUHU21623XXSP,2013-05-08 18:16:00,
2013-05-08 14:21:00,63.5,59.6,30.26,ESE,112,0.0,2.9,87,0.02,,,0.02,WUHU21623XXSP,2013-05-08 18:21:00,
2013-05-08 14:26:00,63.3,59.4,30.26,ESE,112,0.0,2.9,87,0.02,,,0.02,WUHU21623XXSP,2013-05-08 18:26:00,
2013-05-08 14:31:00,63.3,59.8,30.26,SE,135,0.0,0.0,88,0.04,,,0.04,WUHU21623XXSP,2013-05-08 18:31:00,
2013-05-08 14:36:00,63.3,59.4,30.26,SE,135,0.0,0.0,87,0.04,,,0.04,WUHU21623XXSP,2013-05-08 18:36:00,
2013-05-08 14:41:00,63.5,59.6,30.26,NNW,337,0.0,5.1,87,0.04,,,0.04,WUHU21623XXSP,2013-05-08 18:41:00,
2013-05-08 14:46:00,63.5,59.6,30.26,ESE,112,0.0,6.5,87,0.04,,,0.04,WUHU21623XXSP,2013-05-08 18:46:00,
2013-05-08 14:51:00,63.3,59.4,30.25,SE,135,0.0,6.5,87,0.04,,,0.04,WUHU21623XXSP,2013-05-08 18:51:00,
2013-05-08 14:56:00,63.3,59.4,30.25,SE,135,0.0,2.2,87,0.04,,,0.04,WUHU21623XXSP,2013-05-08 18:56:00,
2013-05-08 15:01:00,63.5,59.3,30.25,East,90,0.0,0.0,86,0.04,,,0.04,WUHU21623XXSP,2013-05-08 19:01:00,
2013-05-08 15:06:00,64.0,59.8,30.24,East,90,0.0,0.0,86,0.02,,,0.04,WUHU21623XXSP,2013-05-08 19:06:00,
2013-05-08 15:11:00,64.2,58.9,30.24,ENE,67,0.0,5.1,83,0.02,,,0.04,WUHU21623XXSP,2013-05-08 19:11:00,
2013-05-08 15:16:00,64.8,58.8,30.24,SSE,157,0.0,10.7,81,0.02,,,0.04,WUHU21623XXSP,2013-05-08 19:16:00,
2013-05-08 15:21:00,65.1,59.1,30.24,SSE,157,0.0,10.7,81,0.02,,,0.04,WUHU21623XXSP,2013-05-08 19:21:00,
2013-05-08 15:26:00,64.9,58.3,30.23,ESE,112,0.0,0.9,79,0.00,,,0.04,WUHU21623XXSP,2013-05-08 19:26:00,
2013-05-08 15:31:00,65.3,59.3,30.23,NE,45,0.0,0.9,81,0.00,,,0.04,WUHU21623XXSP,2013-05-08 19:31:00,
2013-05-08 15:36:00,65.8,60.2,30.23,NNE,22,0.0,0.0,82,0.00,,,0.04,WUHU21623XXSP,2013-05-08 19:36:00,
2013-05-08 15:41:00,66.4,60.4,30.23,ESE,112,0.0,0.0,79,0.00,,,0.04,WUHU21623XXSP,2013-05-08 19:41:00,
2013-05-08 15:46:00,66.7,59.7,30.23,East,90,0.0,0.0,78,0.00,,,0.04,WUHU21623XXSP,2013-05-08 19:46:00,
2013-05-08 15:51:00,66.4,59.7,30.22,NNE,22,0.0,2.7,79,0.00,,,0.04,WUHU21623XXSP,2013-05-08 19:51:00,
2013-05-08 15:56:00,66.2,58.0,30.23,NE,45,0.0,6.3,75,0.00,,,0.04,WUHU21623XXSP,2013-05-08 19:56:00,
2013-05-08 16:01:00,66.0,57.8,30.23,NE,45,0.0,6.3,75,0.00,,,0.04,WUHU21623XXSP,2013-05-08 20:01:00,
2013-05-08 16:06:00,66.0,57.8,30.22,ENE,67,0.0,5.1,75,0.00,,,0.04,WUHU21623XXSP,2013-05-08 20:06:00,
2013-05-08 16:11:00,66.0,56.7,30.23,ENE,67,0.0,2.5,72,0.00,,,0.04,WUHU21623XXSP,2013-05-08 20:11:00,
2013-05-08 16:16:00,66.6,57.6,30.22,NE,45,0.0,1.1,73,0.00,,,0.04,WUHU21623XXSP,2013-05-08 20:16:00,
2013-05-08 16:21:00,66.6,57.6,30.22,NNE,22,0.0,4.7,73,0.00,,,0.04,WUHU21623XXSP,2013-05-08 20:21:00,
2013-05-08 16:26:00,66.4,57.1,30.22,NNE,22,0.0,6.0,72,0.00,,,0.04,WUHU21623XXSP,2013-05-08 20:26:00,
2013-05-08 16:31:00,66.0,56.0,30.22,North,0,0.0,7.6,70,0.00,,,0.04,WUHU21623XXSP,2013-05-08 20:31:00,
2013-05-08 16:36:00,65.8,56.2,30.22,WSW,247,0.0,7.6,71,0.00,,,0.04,WUHU21623XXSP,2013-05-08 20:36:00,
2013-05-08 16:41:00,65.3,56.8,30.23,NNE,22,0.0,3.8,74,0.00,,,0.04,WUHU21623XXSP,2013-05-08 20:41:00,
2013-05-08 16:46:00,64.2,56.5,30.23,SSE,157,0.0,6.7,76,0.00,,,0.04,WUHU21623XXSP,2013-05-08 20:46:00,
2013-05-08 16:51:00,62.2,56.0,30.23,SE,135,0.0,6.7,80,0.02,,,0.06,WUHU21623XXSP,2013-05-08 20:51:00,
2013-05-08 16:56:00,61.3,56.5,30.23,ESE,112,0.0,6.0,84,0.02,,,0.06,WUHU21623XXSP,2013-05-08 20:56:00,
2013-05-08 17:01:00,61.0,56.5,30.23,West,270,0.0,0.0,85,0.02,,,0.06,WUHU21623XXSP,2013-05-08 21:01:00,
2013-05-08 17:06:00,60.6,56.4,30.23,ENE,67,0.0,4.5,86,0.02,,,0.06,WUHU21623XXSP,2013-05-08 21:06:00,
2013-05-08 17:11:00,60.6,56.4,30.23,South,180,0.0,5.1,86,0.02,,,0.06,WUHU21623XXSP,2013-05-08 21:11:00,
2013-05-08 17:16:00,60.1,56.3,30.23,SSW,202,0.0,5.1,86,0.02,,,0.06,WUHU21623XXSP,2013-05-08 21:16:00,
2013-05-08 17:21:00,60.1,55.6,30.23,SSE,157,0.0,6.5,85,0.02,,,0.06,WUHU21623XXSP,2013-05-08 21:21:00,
2013-05-08 17:26:00,60.1,56.2,30.23,ENE,67,0.0,6.5,87,0.02,,,0.06,WUHU21623XXSP,2013-05-08 21:26:00,
2013-05-08 17:31:00,60.3,56.4,30.23,SSE,157,0.0,7.6,87,0.02,,,0.06,WUHU21623XXSP,2013-05-08 21:31:00,
2013-05-08 17:36:00,60.4,56.6,30.23,SE,135,0.0,7.6,87,0.02,,,0.06,WUHU21623XXSP,2013-05-08 21:36:00,
2013-05-08 17:41:00,60.4,56.6,30.22,WSW,247,0.0,0.0,87,0.02,,,0.06,WUHU21623XXSP,2013-05-08 21:41:00,
2013-05-08 17:46:00,60.6,56.8,30.22,ENE,67,0.0,5.4,87,0.02,,,0.06,WUHU21623XXSP,2013-05-08 21:46:00,
2013-05-08 17:51:00,60.6,56.4,30.22,South,180,0.0,5.4,86,0.00,,,0.06,WUHU21623XXSP,2013-05-08 21:51:00,
2013-05-08 17:56:00,61.0,56.5,30.22,ENE,67,0.0,4.9,85,0.00,,,0.06,WUHU21623XXSP,2013-05-08 21:56:00,
2013-05-08 18:01:00,61.0,56.5,30.22,East,90,2.7,9.4,85,0.00,,,0.06,WUHU21623XXSP,2013-05-08 22:01:00,
2013-05-08 18:06:00,61.3,56.8,30.22,NE,45,0.0,9.4,85,0.00,,,0.06,WUHU21623XXSP,2013-05-08 22:06:00,
2013-05-08 18:11:00,61.2,56.3,30.22,SE,135,0.0,3.6,84,0.00,,,0.06,WUHU21623XXSP,2013-05-08 22:11:00,
2013-05-08 18:16:00,61.0,56.1,30.22,NNE,22,2.5,2.5,84,0.00,,,0.06,WUHU21623XXSP,2013-05-08 22:16:00,
2013-05-08 18:21:00,61.0,56.1,30.22,ENE,67,0.0,3.4,84,0.00,,,0.06,WUHU21623XXSP,2013-05-08 22:21:00,
2013-05-08 18:26:00,60.8,56.0,30.22,NNE,22,0.0,4.9,84,0.00,,,0.06,WUHU21623XXSP,2013-05-08 22:26:00,
2013-05-08 18:31:00,61.0,56.1,30.21,ESE,112,0.0,5.8,84,0.00,,,0.06,WUHU21623XXSP,2013-05-08 22:31:00,
2013-05-08 18:36:00,61.0,56.3,30.21,North,0,0.0,5.8,84,0.00,,,0.06,WUHU21623XXSP,2013-05-08 22:36:00,
2013-05-08 18:41:00,61.0,56.1,30.21,ENE,67,0.0,3.4,84,0.00,,,0.06,WUHU21623XXSP,2013-05-08 22:41:00,
2013-05-08 18:46:00,60.8,56.3,30.21,ENE,67,0.0,3.4,85,0.00,,,0.06,WUHU21623XXSP,2013-05-08 22:46:00,
2013-05-08 18:51:00,61.0,56.5,30.21,NE,45,0.0,4.5,85,0.00,,,0.06,WUHU21623XXSP,2013-05-08 22:51:00,
2013-05-08 18:56:00,61.0,56.5,30.21,NNW,337,0.0,5.4,85,0.00,,,0.06,WUHU21623XXSP,2013-05-08 22:56:00,
2013-05-08 19:01:00,60.6,56.4,30.21,ENE,67,0.0,5.4,86,0.00,,,0.06,WUHU21623XXSP,2013-05-08 23:01:00,
2013-05-08 19:06:00,60.6,56.4,30.21,SSW,202,0.0,4.0,86,0.00,,,0.06,WUHU21623XXSP,2013-05-08 23:06:00,
2013-05-08 19:11:00,60.4,56.6,30.21,SSW,202,0.0,1.6,87,0.00,,,0.06,WUHU21623XXSP,2013-05-08 23:11:00,
2013-05-08 19:16:00,60.3,56.6,30.21,ENE,67,2.7,2.7,87,0.00,,,0.06,WUHU21623XXSP,2013-05-08 23:16:00,
2013-05-08 19:21:00,60.4,56.6,30.21,SE,135,0.0,2.7,87,0.00,,,0.06,WUHU21623XXSP,2013-05-08 23:21:00,
2013-05-08 19:26:00,60.4,56.6,30.21,ENE,67,0.0,6.0,87,0.00,,,0.06,WUHU21623XXSP,2013-05-08 23:26:00,
2013-05-08 19:31:00,60.6,56.8,30.21,SE,135,0.0,6.0,87,0.00,,,0.06,WUHU21623XXSP,2013-05-08 23:31:00,
2013-05-08 19:36:00,60.4,56.6,30.21,SSE,157,0.0,0.0,87,0.00,,,0.06,WUHU21623XXSP,2013-05-08 23:36:00,
2013-05-08 19:41:00,60.1,56.2,30.21,SSE,157,0.0,0.0,87,0.00,,,0.06,WUHU21623XXSP,2013-05-08 23:41:00,
2013-05-08 19:46:00,60.4,56.6,30.21,ESE,112,0.0,1.8,87,0.00,,,0.06,WUHU21623XXSP,2013-05-08 23:46:00,
2013-05-08 19:51:00,60.1,56.2,30.21,North,0,0.0,1.8,87,0.00,,,0.06,WUHU21623XXSP,2013-05-08 23:51:00,
2013-05-08 19:56:00,60.1,56.6,30.21,East,90,0.0,2.5,88,0.02,,,0.08,WUHU21623XXSP,2013-05-08 23:56:00,
2013-05-08 20:01:00,59.7,56.2,30.21,East,90,0.0,2.5,88,0.02,,,0.08,WUHU21623XXSP,2013-05-09 00:01:00,
2013-05-08 20:06:00,59.5,56.0,30.20,ENE,67,0.0,2.2,88,0.04,,,0.10,WUHU21623XXSP,2013-05-09 00:06:00,
2013-05-08 20:11:00,59.2,56.0,30.21,NE,45,0.0,2.2,89,0.04,,,0.10,WUHU21623XXSP,2013-05-09 00:11:00,
2013-05-08 20:16:00,59.2,56.0,30.20,NE,45,0.0,0.0,89,0.06,,,0.12,WUHU21623XXSP,2013-05-09 00:16:00,
2013-05-08 20:21:00,58.8,55.9,30.20,East,90,0.0,0.0,90,0.06,,,0.12,WUHU21623XXSP,2013-05-09 00:21:00,
2013-05-08 20:26:00,58.8,55.9,30.20,NE,45,0.0,0.0,90,0.06,,,0.12,WUHU21623XXSP,2013-05-09 00:26:00,
2013-05-08 20:31:00,58.8,55.9,30.20,ENE,67,0.0,0.4,90,0.06,,,0.12,WUHU21623XXSP,2013-05-09 00:31:00,
2013-05-08 20:36:00,58.8,55.9,30.20,ENE,67,0.0,0.4,90,0.06,,,0.12,WUHU21623XXSP,2013-05-09 00:36:00,
2013-05-08 20:41:00,58.8,55.9,30.21,East,90,0.0,0.0,90,0.06,,,0.12,WUHU21623XXSP,2013-05-09 00:41:00,
2013-05-08 20:46:00,58.8,55.9,30.21,ESE,112,0.0,0.0,90,0.06,,,0.12,WUHU21623XXSP,2013-05-09 00:46:00,
2013-05-08 20:51:00,58.8,55.9,30.20,ESE,112,0.0,0.0,90,0.06,,,0.12,WUHU21623XXSP,2013-05-09 00:51:00,
2013-05-08 20:56:00,58.8,55.9,30.20,East,90,0.0,0.0,90,0.04,,,0.12,WUHU21623XXSP,2013-05-09 00:56:00,
2013-05-08 21:01:00,58.8,55.9,30.20,SE,135,0.0,1.3,90,0.02,,,0.12,WUHU21623XXSP,2013-05-09 01:01:00,
2013-05-08 21:06:00,58.8,55.9,30.20,NE,45,0.0,1.3,90,0.02,,,0.12,WUHU21623XXSP,2013-05-09 01:06:00,
2013-05-08 21:11:00,58.8,55.9,30.21,NE,45,0.0,0.9,90,0.02,,,0.12,WUHU21623XXSP,2013-05-09 01:11:00,
2013-05-08 21:16:00,58.8,55.9,30.21,ESE,112,0.0,2.0,90,0.00,,,0.12,WUHU21623XXSP,2013-05-09 01:16:00,
2013-05-08 21:21:00,58.8,56.2,30.20,South,180,0.0,2.0,91,0.00,,,0.12,WUHU21623XXSP,2013-05-09 01:21:00,
2013-05-08 21:26:00,58.8,56.2,30.21,North,0,0.0,1.6,91,0.00,,,0.12,WUHU21623XXSP,2013-05-09 01:26:00,
2013-05-08 21:31:00,58.8,56.2,30.20,NNW,337,0.0,4.3,91,0.00,,,0.12,WUHU21623XXSP,2013-05-09 01:31:00,
2013-05-08 21:36:00,58.8,56.2,30.20,SE,135,3.4,4.3,91,0.00,,,0.12,WUHU21623XXSP,2013-05-09 01:36:00,
2013-05-08 21:41:00,58.8,56.2,30.20,ESE,112,0.0,3.4,91,0.00,,,0.12,WUHU21623XXSP,2013-05-09 01:41:00,
2013-05-08 21:47:00,58.8,56.2,30.21,NE,45,0.0,4.7,91,0.00,,,0.12,WUHU21623XXSP,2013-05-09 01:47:00,
2013-05-08 21:52:00,58.8,56.2,30.21,NE,45,0.0,4.7,91,0.00,,,0.12,WUHU21623XXSP,2013-05-09 01:52:00,
2013-05-08 21:57:00,58.8,56.2,30.21,South,180,0.0,0.0,91,0.00,,,0.12,WUHU21623XXSP,2013-05-09 01:57:00,
2013-05-08 22:02:00,58.8,56.2,30.21,South,180,0.0,0.0,91,0.00,,,0.12,WUHU21623XXSP,2013-05-09 02:02:00,
2013-05-08 22:07:00,58.6,56.0,30.20,SW,225,0.0,0.0,91,0.00,,,0.12,WUHU21623XXSP,2013-05-09 02:07:00,
2013-05-08 22:12:00,58.6,56.0,30.20,SW,225,0.0,0.0,91,0.00,,,0.12,WUHU21623XXSP,2013-05-09 02:12:00,
2013-05-08 22:17:00,58.5,55.9,30.20,SSW,202,0.0,0.0,91,0.00,,,0.12,WUHU21623XXSP,2013-05-09 02:17:00,
2013-05-08 22:22:00,58.3,55.7,30.20,SSW,202,0.0,0.0,91,0.00,,,0.12,WUHU21623XXSP,2013-05-09 02:22:00,
2013-05-08 22:26:00,58.3,55.7,30.20,SSW,202,0.0,0.0,91,0.00,,,0.12,WUHU21623XXSP,2013-05-09 02:26:00,
2013-05-08 22:31:00,58.3,55.7,30.20,SSW,202,0.0,0.0,91,0.00,,,0.12,WUHU21623XXSP,2013-05-09 02:31:00,
2013-05-08 22:36:00,58.1,55.5,30.20,ESE,112,0.0,1.1,91,0.00,,,0.12,WUHU21623XXSP,2013-05-09 02:36:00,
2013-05-08 22:41:00,58.1,55.5,30.20,ESE,112,0.0,3.4,91,0.00,,,0.12,WUHU21623XXSP,2013-05-09 02:41:00,
2013-05-08 22:46:00,58.1,55.5,30.20,ESE,112,0.0,3.4,91,0.00,,,0.12,WUHU21623XXSP,2013-05-09 02:46:00,
2013-05-08 22:51:00,57.9,55.3,30.20,ESE,112,0.0,0.0,91,0.00,,,0.12,WUHU21623XXSP,2013-05-09 02:51:00,
2013-05-08 22:56:00,57.9,55.3,30.19,NE,45,0.0,0.0,91,0.00,,,0.12,WUHU21623XXSP,2013-05-09 02:56:00,
2013-05-08 23:01:00,57.9,55.3,30.19,NE,45,0.0,4.7,91,0.00,,,0.12,WUHU21623XXSP,2013-05-09 03:01:00,
2013-05-08 23:06:00,57.9,55.3,30.19,SSE,157,0.0,4.7,91,0.00,,,0.12,WUHU21623XXSP,2013-05-09 03:06:00,
2013-05-08 23:11:00,57.9,55.3,30.19,NNE,22,0.0,4.9,91,0.00,,,0.12,WUHU21623XXSP,2013-05-09 03:11:00,
2013-05-08 23:16:00,58.1,55.5,30.19,NE,45,0.0,4.9,91,0.00,,,0.12,WUHU21623XXSP,2013-05-09 03:16:00,
2013-05-08 23:21:00,58.1,55.5,30.18,NE,45,0.0,2.7,91,0.00,,,0.12,WUHU21623XXSP,2013-05-09 03:21:00,
2013-05-08 23:26:00,58.1,55.5,30.18,ENE,67,0.0,2.2,91,0.00,,,0.12,WUHU21623XXSP,2013-05-09 03:26:00,
2013-05-08 23:31:00,58.3,55.7,30.18,ENE,67,0.0,0.0,91,0.00,,,0.12,WUHU21623XXSP,2013-05-09 03:31:00,
2013-05-08 23:36:00,58.6,56.0,30.18,ENE,67,0.0,0.0,91,0.00,,,0.12,WUHU21623XXSP,2013-05-09 03:36:00,
2013-05-08 23:41:00,57.9,55.3,30.17,ENE,67,0.0,0.0,91,0.00,,,0.12,WUHU21623XXSP,2013-05-09 03:41:00,
2013-05-08 23:46:00,57.7,55.1,30.17,ENE,67,0.0,0.0,91,0.00,,,0.12,WUHU21623XXSP,2013-05-09 03:46:00,
2013-05-08 23:51:00,57.7,55.1,30.17,ENE,67,0.0,0.0,91,0.00,,,0.12,WUHU21623XXSP,2013-05-09 03:51:00,
2013-05-08 23:56:00,57.7,55.1,30.17,ENE,67,0.0,0.0,91,0.00,,,0.12,WUHU21623XXSP,2013-05-09 03:56:00,